Regional Weather Roundup
Issued by NWS

Home | Current Version | Previous Version | Text Only | Print | Product List | Glossary Off
Versions: 1 2 3 4 5 6 7 8 9 10 11 12 13 14 15 16 17 18 19 20 21 22 23 24 25 26 27 28 29 30 31 32 33 34 35 36 37 38 39 40 41 42 43 44 45 46 47 48 49 50

836
ASUS44 KJAN 220310
RWRMS

MISSISSIPPI HOURLY WEATHER ROUNDUP
NATIONAL WEATHER SERVICE JACKSON MS
1000 PM CDT SUN SEP 21 2014

NOTE: "FAIR: INDICATES FEW OR NO CLOUDS BELOW 12,000 FEET WITH NO
SIGNIFICANT WEATHER AND/OR OBSTRUCTIONS TO VISIBILITY.

MSZ001>002-007>008-010>013-018>021-025>028-034>036-220400-
NORTHWEST MISSISSIPPI

CITY           SKY/WX    TMP DP  RH WIND       PRES   REMARKS
CLARKSDALE     FAIR      77  64  65 N14       30.05R
CLEVELAND      MOCLDY    80  72  76 N7        30.02R
GREENWOOD      MOCLDY    77  71  82 CALM      30.01R
GREENVILLE     CLOUDY    81  71  71 N7        30.02R
GRENADA        MOCLDY    75  70  83 N5        30.01R
OLIVE BRANCH   MOCLDY    72  55  56 N7        30.07R
OXFORD         FAIR      73  66  78 N9G16     30.06R
TUNICA         CLEAR     73  54  49 N10       30.06R
$$

MSZ003>006-009-014>017-022>024-029>033-037>039-220400-
NORTHEAST MISSISSIPPI

CITY           SKY/WX    TMP DP  RH WIND       PRES   REMARKS
COLUMBUS AFB   MOCLDY    75  70  85 CALM      29.99R
CORINTH          N/A     73  55  53 N6        30.04R
GOLDN TRIANGLE MOCLDY    79  66  65 CALM      29.99S
STARKVILLE     CLOUDY    73  68  83 CALM      30.00R
TUPELO         MOCLDY    76  71  85 N7        30.01R
$$

MSZ040-058-220400-
CENTRAL MISSISSIPPI

CITY           SKY/WX    TMP DP  RH WIND       PRES   REMARKS
JACKSON INTL   CLEAR     72  69  90 CALM      30.02R
JACKSON HAWKNS CLEAR     78  68  71 CALM      30.02R
MERIDIAN KEY   CLEAR     72  69  90 CALM      30.01R
MERIDIAN NAS   CLEAR     75  67  76 W3        30.01R
RAYMOND        FAIR      73  68  83 MISG      30.02R
VICKSBURG      CLEAR     72  70  93 CALM      30.02R
$$

MSZ059>079-220400-
SOUTH MISSISSIPPI

CITY           SKY/WX    TMP DP  RH WIND       PRES   REMARKS
BROOKHAVEN     FAIR      72  68  88 CALM      30.04R
COLUMBIA       FAIR      68  68 100 CALM      30.01R
HATTIESBURG    CLEAR     72  70  93 CALM      30.02R
MCCOMB         CLEAR     71  66  84 CALM      30.03R
NATCHEZ        CLEAR     73  72  94 CALM      30.03R
PINE BELT      CLEAR    N/A N/A N/A CALM      30.02S
$$

MSZ080>082-220400-
COASTAL MISSISSIPPI

CITY           SKY/WX    TMP DP  RH WIND       PRES   REMARKS
BILOXI         CLEAR     80  70  71 S2        30.01S
PASCAGOULA     CLEAR     69  68  96 CALM      30.01S
GULFPORT       CLEAR     75  71  87 CALM      30.00S
$$



USA.gov is the U.S. government's official web portal to all federal, state and local government web resources and services.